This demonstration page uses our WeatherBlox Daily Observations layout. Learn more.

Left ArrowRight Arrow

Hourly Observations for August 10, 2015

Temp ( °F °C ) Dew Point ( °F °C ) Humidity (%) Winds ( mph kmh ) Pressure ( in mb ) Visibility ( mi km ) Precip ( " mm )
12:15 am 00:15 Clear 73 23 70 21.2 90 90 NE 3 6 29.94 1014 10 16 N/A
12:35 am 00:35 Clear 73 22.6 70 21 91 91 Calm 29.94 1014 10 16 N/A
12:55 am 00:55 Mostly Cloudy 73 22.5 70 21.2 92 92 ENE 7 11 29.94 1014 10 16 N/A
1:15 am 01:15 Partly Cloudy 72 22.1 69 20.5 91 91 E 9 15 29.94 1014 10 16 N/A
1:35 am 01:35 Clear 71 21.8 68 20 90 90 E 5 7 29.94 1014 10 16 N/A
1:55 am 01:55 Partly Cloudy 71 21.5 68 19.9 91 91 ENE 5 7 29.94 1014 10 16 N/A
2:15 am 02:15 Partly Cloudy 70 21 67 19.6 92 92 Calm 29.94 1014 10 16 N/A
2:35 am 02:35 Clear 69 20.6 67 19.5 93 93 Calm 29.94 1014 10 16 N/A
2:55 am 02:55 Clear 69 20.4 67 19.4 94 94 NW 5 7 29.97 1015 7 11 N/A
3:15 am 03:15 Clear 68 20.2 67 19.3 95 95 WNW 5 7 29.97 1015 7 11 N/A
3:35 am 03:35 Clear 68 20.1 67 19.2 95 95 NW 5 7 29.97 1015 10 16 N/A
3:55 am 03:55 Clear 68 20 67 19.2 95 95 NNW 5 7 29.97 1015 10 16 N/A
4:15 am 04:15 Clear 68 20 66 19.1 95 95 NNW 3 6 29.97 1015 10 16 N/A
4:35 am 04:35 Clear 68 20.1 67 19.2 95 95 Calm 29.97 1015 10 16 N/A
4:55 am 04:55 Partly Cloudy 67 19.5 65 18.6 95 95 Calm 29.97 1015 10 16 N/A
5:15 am 05:15 Mostly Cloudy 68 20 66 19.1 95 95 Calm 29.97 1015 10 16 N/A
5:35 am 05:35 Mostly Cloudy 68 20 66 19.1 95 95 NNW 3 6 29.97 1015 10 16 N/A
5:55 am 05:55 Clear 67 19.4 65 18.4 94 94 N 8 13 29.97 1015 10 16 N/A
6:15 am 06:15 Clear 66 19 64 17.7 92 92 N 5 7 29.97 1015 10 16 N/A
6:35 am 06:35 Clear 66 19.1 64 18 93 93 NNW 7 11 29.97 1015 10 16 N/A
6:55 am 06:55 Sunny 66 19 64 18 94 94 N 6 9 30.00 1016 10 16 N/A
7:15 am 07:15 Sunny 67 19.5 65 18.5 94 94 NNW 5 7 30.00 1016 10 16 N/A
7:35 am 07:35 Sunny 68 20.1 66 19.1 94 94 NNW 5 7 30.00 1016 10 16 N/A
7:55 am 07:55 Sunny 69 20.7 67 19.5 93 93 Calm 30.00 1016 10 16 N/A
8:15 am 08:15 Sunny 71 21.4 67 19.5 89 89 NNE 5 7 30.00 1016 10 16 N/A
8:35 am 08:35 Sunny 72 22 67 19.3 85 85 NNE 7 11 30.00 1016 10 16 N/A
8:55 am 08:55 Sunny 73 22.5 67 19.6 84 84 NNE 6 9 30.00 1016 10 16 N/A
9:15 am 09:15 Sunny 73 22.9 67 19.3 80 80 NNE 6 9 30.03 1017 10 16 N/A
9:35 am 09:35 Sunny 74 23.2 67 19.2 78 78 NNE 7 11 30.03 1017 10 16 N/A
9:55 am 09:55 Sunny 74 23.5 67 19.4 78 78 NNE 9 15 30.06 1018 10 16 N/A
10:15 am 10:15 Sunny 75 24 67 19.5 76 76 N 10 17 30.06 1018 10 16 N/A
10:35 am 10:35 Sunny 76 24.2 67 19.2 74 74 N 10 17 30.06 1018 10 16 N/A
10:55 am 10:55 Sunny 76 24.6 67 19.2 72 72 N 7 11 30.03 1017 10 16 N/A
11:15 am 11:15 Sunny 76 24.5 66 19 72 72 N 9 15 30.03 1017 10 16 N/A
11:35 am 11:35 Sunny 77 25 67 19.3 71 71 NE 9 15 30.03 1017 10 16 N/A
11:55 am 11:55 Partly Cloudy 78 25.3 67 19.6 71 71 NE 7 11 30.03 1017 10 16 N/A
12:15 pm 12:15 Partly Cloudy 77 25.1 66 18.7 68 68 NE 3 6 30.03 1017 10 16 N/A
12:35 pm 12:35 Partly Cloudy 78 25.6 67 19.2 68 68 ENE 7 11 30.03 1017 10 16 N/A
12:55 pm 12:55 Sunny 78 25.7 66 19.1 67 67 NE 8 13 30.03 1017 10 16 N/A
1:15 pm 13:15 Sunny 79 26 67 19.6 68 68 E 7 11 30.03 1017 10 16 N/A
1:35 pm 13:35 Sunny 79 26 67 19.4 67 67 E 8 13 30.03 1017 10 16 N/A
1:55 pm 13:55 Sunny 79 26.1 67 19.3 66 66 NE 6 9 30.03 1017 10 16 N/A
2:15 pm 14:15 Partly Cloudy 79 26 66 18.7 64 64 NE 5 7 30.03 1017 10 16 N/A
2:35 pm 14:35 Sunny 80 26.5 67 19.3 65 65 ENE 9 15 30.03 1017 10 16 N/A
2:55 pm 14:55 Sunny 80 26.5 65 18.3 61 61 NE 7 11 30.03 1017 10 16 N/A
3:15 pm 15:15 Sunny 80 26.9 66 18.8 61 61 ENE 7 11 30.03 1017 10 16 N/A
3:35 pm 15:35 Sunny 81 27 64 17.9 58 58 NNE 7 11 30.00 1016 10 16 N/A
3:55 pm 15:55 Sunny 81 27 65 18.2 59 59 NE 6 9 30.00 1016 10 16 N/A
4:15 pm 16:15 Sunny 81 27.1 64 17.8 57 57 NE 7 11 30.00 1016 10 16 N/A
4:35 pm 16:35 Sunny 81 27 65 18.1 58 58 ENE 8 13 30.00 1016 10 16 N/A
4:55 pm 16:55 Partly Cloudy 81 27.2 63 17.4 55 55 E 7 11 30.00 1016 10 16 N/A
5:15 pm 17:15 Mostly Cloudy 80 26.4 64 18 60 60 Calm 30.00 1016 10 16 N/A
5:35 pm 17:35 Mostly Cloudy 80 26.8 63 17.2 56 56 E 3 6 29.97 1015 10 16 N/A
5:55 pm 17:55 Partly Cloudy 81 27.1 65 18.1 58 58 E 6 9 30.00 1016 10 16 N/A
6:15 pm 18:15 Partly Cloudy 81 27.4 64 17.5 55 55 Calm 30.00 1016 10 16 N/A
6:35 pm 18:35 Partly Cloudy 80 26.9 64 17.5 56 56 Calm 30.00 1016 10 16 N/A
6:55 pm 18:55 Partly Cloudy 80 26.5 65 18.4 61 61 Calm 30.00 1016 10 16 N/A
7:15 pm 19:15 Partly Cloudy 80 26.7 64 18 59 59 Calm 29.97 1015 10 16 N/A
7:35 pm 19:35 Sunny 78 25.7 67 19.5 69 69 NE 6 9 29.97 1015 10 16 N/A
7:55 pm 19:55 Sunny 77 25.2 68 20.1 73 73 ENE 3 6 29.97 1015 10 16 N/A
8:15 pm 20:15 Sunny 76 24.3 68 20.1 77 77 ENE 6 9 30.03 1017 10 16 N/A
8:35 pm 20:35 Sunny 74 23.1 67 19.7 81 81 ENE 5 7 30.03 1017 10 16 N/A
8:55 pm 20:55 Clear 73 22.5 66 18.7 79 79 E 6 9 30.03 1017 10 16 N/A
9:15 pm 21:15 Clear 73 22.5 65 18.4 78 78 ESE 7 11 30.03 1017 10 16 N/A
9:35 pm 21:35 Clear 72 22.3 65 18.5 79 79 ESE 8 13 30.06 1018 10 16 N/A
9:55 pm 21:55 Clear 72 22.2 65 18.2 78 78 ESE 7 11 30.06 1018 10 16 N/A
10:15 pm 22:15 Clear 72 22.2 64 18 77 77 ESE 6 9 30.06 1018 10 16 N/A
10:35 pm 22:35 Clear 71 21.6 65 18.2 81 81 SE 6 9 30.06 1018 10 16 N/A
10:55 pm 22:55 Clear 70 21 65 18.4 85 85 SE 5 7 30.12 1020 10 16 N/A
11:15 pm 23:15 Clear 70 21 65 18.5 86 86 SE 6 9 30.12 1020 10 16 N/A
11:35 pm 23:35 Clear 69 20.7 65 18.5 87 87 SE 3 6 30.12 1020 10 16 N/A
11:55 pm 23:55 Clear 69 20.5 65 18.3 87 87 SE 3 6 30.12 1020 10 16 N/A

Powered by AerisWeather